Regional Weather Roundup
Issued by NWS New Orleans/Baton Rouge, LA

Home | Current Version | Previous Version | Text Only | Print | Product List | Glossary Off
Versions: 1 2 3 4 5 6 7 8 9 10 11 12 13 14 15 16 17 18 19 20 21 22 23 24 25 26 27 28 29 30 31 32 33 34 35 36 37 38 39 40 41 42 43 44 45 46 47 48 49 50

106
ASUS44 KLIX 270201
RWRLIX
NEW ORLEANS REGIONAL WEATHER ROUNDUP
NATIONAL WEATHER SERVICE NEW ORLEANS LA
800 PM CST THU FEB 26 2015

NOTE: "FAIR" INDICATES FEW OR NO CLOUDS BELOW 12,000 FEET WITH NO
      SIGNIFICANT WEATHER AND/OR OBSTRUCTIONS TO VISIBILITY.
      SKY/WX - SKY CONDITION AND SIGNIFICANT WEATHER.
      TMP - AIR TEMPERATURE.     DP    - DEWPOINT TEMPERATURE.
      RH  - RELATIVE HUMIDITY.   PRES  - PRESSURE.
      HI  - HEAT INDEX.          WCI   - WIND CHILL INDEX.

*  THESE STATIONS ARE NOT NWS OR FAA STATIONS AND ARE NOT UNDER
   NWS QUALITY CONTROL.

LAZ038-040-048-061>063-065>067-069-270300-
SOUTHEAST LOUISIANA

CITY           SKY/WX    TMP DP  RH WIND       PRES   REMARKS
N.O. AUDUBON     N/A     49  37  64 MISG        N/A
N.O. INTL ARPT CLOUDY    47  34  60 N9        30.19R
N.O. LAKEFRONT MOCLDY    50  35  56 N13       30.20R
SLIDELL        CLOUDY    42  35  76 CALM      30.19R
BATON ROUGE    CLEAR     42  33  70 N7G17     30.23R
BOOTHVILLE     CLOUDY    48  38  68 N8        30.18R
BELLE CHASSE   CLOUDY    47  32  56 NE5       30.19R
BOGALUSA*        N/A     42  34  72 N6        30.21R
GALLIANO*      CLOUDY    48  37  65 MISG      30.19R
NEW ROADS*     NOT AVBL
GONZALES*      NOT AVBL
HAMMOND*       NOT AVBL
HOUMA*         CLOUDY    44  35  70 N3        30.19R
PORT FOURCHON* CLEAR     46  37  71 N12G18    30.21R

$$

MSZ070-080>082-270300-
SOUTHERN MISSISSIPPI

CITY           SKY/WX    TMP DP  RH WIND       PRES   REMARKS
MCCOMB         CLEAR     38  30  73 N14G22    30.23R WCI  30
GULFPORT       MOCLDY    44  34  67 N5        30.18R
BILOXI         NOT AVBL
PASCAGOULA     CLOUDY    43  35  73 CALM      30.17R
STENNIS ARPT*  CLEAR     39  34  81 VRB3      30.20R

$$

COASTAL OBSERVATIONS
LAKE AND NEARSHORE STATIONS

STATION/POSITION TIME  TEMP    WIND        PRES    WAVE
                       AIR SEA DIR/SP/G            HT/PER
                 (UTC) (F)     (DEG/KT/KT) (MB)    (FT/S)
PASCAGOULA       0118   47     360/  9/ 14 1020.5
WAVELAND YACHT   0118   46 51   10/  8/  9 1020.9
GRAND ISLE       0118   47 53   10/ 13/ 19 1021.3
SOUTHWEST PASS   0118   48 49   20/ 16/ 20 1021.0
NEW CANAL        0118   49      10/ 13/ 15 1021.7
SHELL BEACH      0118   48 51  360/ 13/ 17 1021.2

OFFSHORE STATIONS

STATION/POSITION TIME  TEMP    WIND        PRES    WAVE
                       AIR SEA DIR/SP/G            HT/PER
                 (UTC) (F)     (DEG/KT/KT) (MB)    (FT/S)
64 S DAUPHIN ISL 0128   50 63   20/ 19/ 25 1020.7    4/ 4

$$




USA.gov is the U.S. government's official web portal to all federal, state and local government web resources and services.